Погода в Кейптауне

ЮАР     33°55′18″S   18°25′22″E
темп.,
°C
ветер,
м/с
пор.,
м/с
влажн.,
%
обл.,
%
осадки,
мм/ч
давл.,
гПа
погр.,
м
24 июля, сб
сб2423:00+10в11570 0.0 103324
02:00+9ссв11580 0.0 103221
05:00+9всв11510 0.0 103024
08:00+9всв1144100 0.0 103022
11:00+14всв113116 0.0 1030147
14:00+18ю11258 0.0 1028517
17:00+16ююв223474 0.0 1027119
20:00+13ююв22416 0.0 102821
25 июля, вс
вс2523:00+12юв114890 0.0 102816
02:00+11ююв2251100 0.0 102822
05:00+11ююв2258100 0.0 102631
08:00+12ю2261100 0.0 102633
11:00+16юв1142100 0.0 102697
14:00+20в0125100 0.0 1023272
17:00+18юв1135100 0.0 102324
20:00+15юв1144100 0.0 102214
26 июля, пн
пн2623:00+15всв1144100 0.0 102114
02:00+14св1235100 0.0 101917
05:00+14с123583 0.0 101811
08:00+14с2236100 0.0 101814
11:00+18ссз3632100 0.0 1018179
14:00+21ссз51033100 0.0 1016903
17:00+19сз411475 0.0 1014556
20:00+15ссз366915 0.0 1015193
27 июля, вт
вт2723:00+13ссз35710 0.0 1015155
02:00+12с466126 0.0 1014159
05:00+10с48770 0.0 1014218
08:00+10ссз498853 0.0 1016327
11:00+15ссз7137799 0.1 10171245
14:00+16сз101575100 0.7 10161377
17:00+13з5107899 4.3 10181089
20:00+12зсз2574100 4.4 1021197
28 июля, ср
ср2823:00+11зсз1270100 0.1 102295
02:00+11ссз126799 0.1 102381
05:00+11ссз126898 0.1 102370
08:00+11сз226791 0.3 102597
11:00+14зсз34499 0.1 10261559
14:00+15зсз464911 0.2 10251610
17:00+14сз35545 0.0 10251229
20:00+12ссз23676 0.1 1027144